Temperature
1 1 1 1 1 1 1 1 1 1 1 1 1 1 1 1 1 1 2 2 2 2 1 2 2 2 1 1 1 1 1 1 1 1 1 1 1 0 0 0 0 0 0
0 0 0 0 0 0 0 1 1 1 1 1 1 1 1 1 1 1 1 1 1 1 1 1 1 1 1 1 1 0 1 0 0 1 0 0 0 -0 -0 -0 -0 -0 -0
-1 -0 -0 -0 -0 -0 -0 -0 0 0 0 0 0 0 0 0 0 0 0 0 0 0 1 0 0 0 0 0 0 -0 -0 -0 -0 -0 -0 -0 -0 -1 -1 -1 -1 -1 -1
-1 -1 -1 -1 -1 -1 -1 -1 -1 -1 -0 -0 -0 -0 -0 -0 -0 -0 -0 -0 -0 -0 0 0 -0 -0 -0 -0 -0 -1 -1 -1 -1 -1 -1 -1 -1 -1 -2 -2 -2 -2 -1
-2 -2 -2 -2 -2 -2 -1 -1 -1 -1 -1 -1 -1 -1 -1 -1 -1 -1 -1 -1 -1 -1 -1 -1 -1 -1 -1 -1 -1 -1 -1 -1 -1 -2 -2 -2 -2 -2 -2 -2 -2 -2 -2
-3 -3 -2 -2 -2 -2 -2 -2 -2 -2 -2 -2 -2 -2 -1 -1 -1 -1 -1 -1 -1 -1 -1 -1 -1 -1 -1 -1 -1 -2 -2 -2 -2 -2 -2 -2 -2 -2 -2 -3 -3 -3 -3
-3 -3 -3 -3 -3 -3 -3 -3 -3 -3 -2 -2 -2 -2 -2 -2 -2 -2 -2 -2 -2 -2 -2 -2 -2 -2 -2 -2 -2 -2 -2 -2 -2 -2 -2 -2 -2 -2 -3 -3 -3 -3 -3
-4 -3 -3 -3 -3 -3 -3 -3 -3 -3 -3 -3 -3 -3 -3 -2 -2 -2 -3 -3 -3 -3 -3 -3 -3 -3 -3 -3 -3 -3 -3 -3 -3 -3 -3 -3 -3 -3 -3 -4 -4 -4 -4
-4 -4 -4 -4 -4 -4 -4 -4 -4 -4 -4 -4 -3 -3 -3 -3 -3 -3 -3 -3 -3 -3 -3 -3 -3 -3 -3 -3 -3 -3 -3 -3 -3 -4 -4 -4 -4 -4 -4 -4 -5 -5 -5
-4 -4 -4 -5 -5 -5 -5 -5 -5 -5 -4 -4 -4 -4 -4 -4 -4 -4 -4 -4 -4 -4 -4 -4 -4 -4 -4 -4 -4 -4 -4 -4 -4 -4 -4 -4 -4 -5 -5 -5 -5 -5 -5
-5 -5 -5 -5 -5 -5 -5 -5 -5 -5 -5 -5 -5 -5 -4 -4 -4 -4 -5 -4 -5 -5 -5 -5 -5 -5 -4 -5 -5 -4 -4 -4 -5 -5 -5 -5 -5 -5 -6 -6 -6 -6 -6
-6 -6 -6 -6 -6 -6 -6 -6 -6 -6 -6 -6 -6 -5 -5 -5 -5 -5 -5 -5 -5 -5 -5 -5 -5 -5 -5 -5 -5 -5 -5 -5 -5 -6 -6 -6 -6 -6 -6 -6 -6 -6 -6
-7 -7 -7 -7 -7 -7 -6 -6 -6 -6 -6 -6 -6 -6 -6 -6 -6 -6 -6 -6 -6 -6 -6 -6 -6 -6 -6 -6 -6 -6 -6 -6 -6 -6 -6 -6 -6 -7 -7 -7 -7 -7 -7
-7 -7 -7 -7 -7 -7 -7 -7 -7 -7 -7 -7 -7 -7 -7 -7 -7 -7 -7 -6 -6 -6 -6 -6 -6 -6 -6 -7 -7 -7 -7 -7 -7 -7 -7 -7 -7 -7 -7 -7 -7 -7 -8
-8 -8 -8 -8 -8 -8 -8 -8 -8 -7 -7 -7 -7 -7 -7 -7 -7 -7 -7 -7 -7 -7 -7 -7 -7 -7 -7 -7 -7 -7 -7 -7 -8 -8 -8 -8 -8 -8 -8 -8 -8 -8 -8
-8 -8 -9 -9 -9 -9 -9 -8 -8 -8 -8 -8 -8 -8 -8 -8 -8 -8 -8 -8 -8 -8 -8 -8 -8 -8 -8 -8 -8 -8 -8 -8 -8 -8 -8 -8 -8 -8 -8 -9 -9 -9 -9
-9 -9 -9 -9 -9 -9 -9 -9 -9 -9 -8 -8 -9 -9 -9 -9 -9 -8 -8 -8 -8 -8 -8 -8 -8 -8 -8 -8 -8 -8 -9 -9 -9 -9 -9 -9 -9 -9 -9 -9 -9 -9 -9
-10 -10 -10 -10 -10 -10 -10 -10 -10 -10 -9 -9 -9 -9 -9 -9 -9 -9 -9 -9 -9 -9 -9 -9 -9 -9 -9 -9 -9 -9 -9 -9 -9 -9 -9 -9 -9 -9 -9 -9 -9 -9 -9
-10 -10 -10 -10 -10 -10 -10 -10 -10 -10 -10 -10 -10 -10 -10 -10 -10 -10 -10 -10 -10 -10 -10 -10 -10 -10 -10 -9 -9 -10 -10 -10 -10 -10 -10 -10 -10 -10 -10 -10 -10 -10 -10
-11 -11 -11 -11 -11 -11 -11 -11 -11 -11 -11 -11 -11 -11 -11 -11 -10 -10 -10 -10 -10 -10 -10 -10 -10 -10 -10 -10 -10 -10 -10 -10 -10 -10 -10 -10 -10 -10 -10 -10 -10 -10 -11
-11 -11 -12 -12 -12 -12 -12 -12 -12 -12 -12 -12 -12 -12 -11 -11 -11 -11 -11 -11 -11 -11 -11 -11 -11 -11 -11 -11 -11 -11 -11 -11 -11 -11 -11 -11 -11 -11 -11 -11 -11 -11 -11
-12 -12 -12 -12 -12 -12 -12 -12 -12 -12 -12 -12 -12 -12 -12 -12 -12 -12 -11 -11 -11 -11 -11 -11 -11 -11 -11 -11 -11 -11 -11 -11 -11 -11 -11 -11 -11 -11 -11 -11 -11 -11 -11
-13 -13 -13 -13 -13 -13 -13 -13 -13 -13 -13 -13 -13 -13 -12 -12 -12 -12 -12 -12 -12 -12 -12 -12 -12 -12 -11 -11 -11 -11 -11 -11 -11 -11 -12 -11 -11 -11 -11 -11 -11 -12 -12
-13 -13 -13 -13 -13 -13 -13 -13 -13 -13 -13 -13 -13 -13 -13 -13 -13 -13 -13 -13 -12 -12 -12 -12 -12 -12 -12 -12 -12 -12 -12 -12 -12 -12 -12 -12 -12 -12 -12 -12 -12 -12 -12
-14 -14 -14 -14 -14 -14 -14 -14 -14 -14 -14 -14 -14 -14 -14 -13 -13 -13 -13 -13 -13 -13 -13 -12 -12 -12 -12 -12 -12 -12 -12 -12 -12 -12 -12 -12 -12 -12 -12 -12 -12 -12 -13
-14 -14 -14 -14 -14 -14 -14 -14 -14 -14 -14 -14 -14 -14 -14 -14 -14 -14 -13 -13 -13 -13 -13 -13 -13 -13 -12 -12 -12 -12 -12 -13 -13 -13 -13 -13 -13 -12 -12 -12 -13 -13 -13
Wind_Speed
2 2 2 3 3 4 4 5 5 5 6 7 7 6 7 7 7 6 6 6 7 6 5 7 7 6 5 4 4 4 3 3 3 3 2 2 3 4 4 5 6 5 5
2 2 2 2 3 4 4 4 4 5 6 6 6 6 6 6 7 7 7 7 7 7 7 7 7 6 6 5 5 5 4 4 3 4 2 2 3 4 4 4 4 5 5
2 2 2 1 2 3 4 4 5 5 5 5 6 6 6 6 7 7 7 7 7 7 7 8 8 8 7 5 6 6 5 4 3 3 3 2 2 2 2 2 3 4 5
2 2 2 2 2 3 4 4 4 4 5 5 5 6 6 6 7 7 7 6 6 6 6 7 8 8 9 8 7 7 5 4 3 3 2 2 2 2 2 2 3 2 3
2 2 2 2 2 2 2 3 3 4 4 4 4 4 5 5 6 7 7 7 7 6 6 7 7 9 10 9 7 7 7 5 4 4 3 2 3 3 4 3 3 3 3
2 2 2 1 1 2 2 3 3 4 4 4 4 5 5 5 7 9 7 7 7 7 7 7 7 8 9 10 10 10 9 8 7 5 4 5 5 4 3 3 2 2 4
2 2 2 2 2 2 2 2 3 4 4 4 4 4 5 6 8 9 9 6 7 7 8 7 6 6 7 6 7 8 8 9 9 7 7 7 6 6 6 5 5 4 5
2 2 2 2 2 2 2 3 3 3 4 4 4 5 5 6 8 8 8 6 6 6 7 7 7 6 7 7 7 6 6 6 7 6 7 7 7 7 8 6 5 3 2
2 2 2 2 3 3 3 3 3 3 3 4 4 4 5 5 7 8 7 5 5 5 6 6 6 7 9 9 7 7 6 5 6 6 6 6 7 7 7 3 3 3 3
2 3 2 2 3 4 4 3 3 3 4 3 4 4 5 5 7 8 7 4 5 4 4 5 7 8 9 9 7 8 7 6 4 3 3 3 4 6 8 7 5 5 3
2 2 2 2 3 3 3 3 2 2 2 3 3 3 4 5 6 7 6 4 5 5 5 5 5 9 9 9 7 7 7 5 4 4 3 2 2 3 4 5 6 5 4
1 1 2 2 2 2 2 2 2 3 3 3 3 3 3 3 5 6 6 6 5 5 5 4 5 8 9 8 6 5 5 4 3 4 3 3 3 3 3 4 4 5 5
1 1 2 2 2 1 2 3 2 3 3 3 3 3 2 2 3 5 5 6 6 4 4 5 5 6 6 5 6 6 4 4 4 4 4 4 3 3 2 2 2 2 2
1 1 1 1 1 1 2 2 3 3 3 3 3 3 3 2 2 2 2 3 4 4 3 4 5 4 4 4 4 4 3 4 5 5 4 3 2 2 2 2 2 2 2
1 1 1 1 1 1 2 1 2 3 4 4 3 4 4 4 5 5 3 3 3 3 3 2 2 3 3 3 3 3 3 3 3 3 3 3 3 3 3 2 2 2 3
1 1 1 1 1 1 1 1 2 2 2 3 3 3 4 5 5 5 5 5 5 5 3 3 4 4 4 4 4 4 3 4 4 3 4 4 4 3 3 2 2 3 3
1 1 1 1 1 1 1 1 1 2 2 2 3 3 2 3 4 4 4 4 4 4 2 3 3 4 4 4 4 4 4 3 3 3 4 4 4 4 4 3 3 3 4
1 1 1 1 1 1 1 1 1 1 1 2 2 3 2 2 2 2 2 1 1 1 2 2 3 3 3 4 4 4 3 3 3 3 4 4 4 4 4 4 4 4 4
1 1 1 0 1 1 1 1 1 1 1 1 2 3 3 3 2 2 1 1 2 2 2 2 2 3 3 3 3 3 4 4 4 4 4 4 4 4 5 5 5 6 5
2 2 2 1 1 1 0 1 1 1 1 1 2 2 2 2 1 1 1 1 1 2 2 2 2 3 3 3 3 3 3 3 4 4 4 5 5 5 5 6 5 5 5
1 2 2 2 1 1 1 1 1 1 1 1 2 2 2 1 1 1 1 1 1 2 2 2 2 2 3 3 3 3 4 3 3 4 4 4 5 4 4 5 5 5 4
1 1 1 1 1 1 1 1 1 1 1 2 2 2 4 2 1 1 2 2 1 1 1 2 2 2 3 3 3 4 4 4 4 4 4 4 4 4 4 4 4 4 4
1 1 1 1 1 1 1 1 1 1 1 2 2 2 2 2 2 2 2 2 1 1 2 2 2 2 3 3 4 5 5 5 5 5 4 4 4 4 5 5 5 5 5
1 1 1 1 1 1 1 2 2 2 2 2 2 2 2 2 2 2 2 2 1 2 2 2 3 4 4 4 4 5 6 7 7 7 7 6 5 5 5 5 5 6 6
0 1 1 1 1 1 2 2 2 2 2 2 2 2 2 2 2 2 2 2 2 2 3 3 3 4 5 5 5 5 6 7 8 8 7 7 6 6 6 6 5 5 5
0 1 1 1 1 2 2 2 2 2 2 2 2 2 3 3 3 3 2 2 2 2 3 3 4 4 5 5 6 7 7 8 8 8 7 6 5 5 5 5 6 6 5
Wind_Direction
224 226 226 222 213 207 213 214 203 199 192 192 193 196 196 195 191 193 202 200 201 205 205 201 202 193 192 190 185 184 186 184 213 248 244 222 201 212 231 231 239 245 256
248 230 234 233 209 210 221 220 203 201 197 193 195 199 202 200 196 199 204 205 202 205 206 203 205 198 195 193 191 195 198 196 198 224 242 224 224 214 209 216 240 248 254
254 237 234 242 227 228 228 215 199 197 194 192 195 201 203 205 204 204 204 205 205 209 205 204 206 196 200 200 197 199 200 200 192 199 228 236 235 214 214 243 247 249 261
240 232 234 241 244 242 229 207 199 195 194 196 204 206 207 208 207 205 204 205 208 211 212 210 209 203 204 201 202 203 195 190 182 182 207 228 238 216 201 233 265 264 270
234 234 239 244 258 248 221 208 201 198 202 200 202 211 212 214 210 202 203 207 209 213 217 217 217 217 215 210 207 199 192 192 189 191 203 219 226 214 218 224 246 273 278
220 239 247 242 250 242 225 210 202 203 204 200 206 213 220 225 222 215 206 204 210 213 216 220 223 220 221 221 217 209 198 194 195 199 212 217 220 220 212 219 230 259 270
223 238 245 245 257 258 240 216 214 209 200 207 214 216 224 232 227 220 216 207 209 213 212 213 221 221 220 215 217 213 216 218 211 204 209 219 213 207 199 211 219 232 250
229 237 239 243 253 260 240 226 224 215 206 211 217 219 228 238 234 225 219 211 212 215 214 212 214 217 215 208 203 207 213 219 221 219 215 217 214 206 202 207 216 233 274
247 248 242 232 240 245 242 237 228 218 222 221 220 218 227 240 238 229 222 205 214 220 221 220 216 217 219 210 201 203 211 223 226 228 234 230 222 212 200 180 188 210 252
262 264 258 238 237 239 240 238 233 220 224 227 233 227 227 234 237 232 221 204 212 219 222 226 225 222 221 209 198 197 209 216 205 208 222 225 211 207 206 196 197 210 236
282 281 276 256 246 239 238 229 219 219 219 228 234 242 236 234 235 236 224 207 209 215 222 224 230 224 222 216 209 203 212 205 191 190 196 202 199 202 210 209 210 211 222
274 276 279 277 271 247 224 227 212 200 205 223 225 244 247 238 234 229 231 230 221 215 223 223 223 222 215 212 212 216 209 186 177 188 197 209 211 214 212 214 221 228 235
255 267 268 275 279 263 218 213 204 201 205 218 219 231 245 244 231 236 241 241 231 228 226 222 220 218 207 203 211 206 189 181 185 195 206 218 219 211 200 206 220 232 267
238 264 262 253 264 270 256 226 205 207 210 217 226 231 238 239 231 233 237 248 234 237 235 222 214 212 209 210 203 199 197 198 199 203 209 217 206 202 211 214 222 230 251
254 258 266 263 253 267 271 248 231 227 222 222 223 218 215 228 237 237 231 233 219 217 204 188 192 195 198 200 205 207 205 200 205 201 198 206 210 212 222 219 217 222 237
280 288 282 278 273 273 276 327 324 285 288 285 269 252 238 237 238 241 247 246 234 208 198 192 198 200 202 206 204 208 211 209 210 206 203 206 211 215 220 226 221 223 235
250 287 285 287 279 269 267 273 312 330 327 315 305 295 277 250 240 240 241 243 222 199 198 194 198 202 203 203 204 205 214 216 206 202 208 209 211 213 216 221 226 232 241
326 307 304 270 264 259 262 264 264 275 303 321 321 312 307 301 280 266 238 226 218 206 193 199 205 206 204 205 207 209 208 205 204 209 211 210 210 212 217 221 223 231 241
357 345 329 310 306 290 279 273 272 281 283 303 324 329 329 328 331 319 309 235 203 210 209 212 214 212 209 204 207 208 205 206 207 211 214 213 211 213 221 225 230 240 245
355 345 347 348 335 332 315 285 285 286 288 295 301 308 323 331 335 329 322 288 235 216 212 212 217 213 204 203 203 203 204 208 208 214 219 214 215 216 221 223 227 232 239
344 339 346 349 342 321 299 284 281 277 276 284 292 297 304 300 286 292 287 280 252 226 213 205 212 213 207 206 205 205 205 214 217 217 219 216 214 220 226 227 230 231 238
341 336 337 328 314 299 296 279 271 272 280 289 306 314 322 331 321 304 288 284 270 242 220 208 215 220 215 210 205 208 212 218 221 220 221 220 216 218 221 224 227 230 228
358 343 327 321 313 299 314 309 297 288 286 290 300 313 321 316 307 293 283 277 270 252 239 228 232 239 233 225 217 213 216 223 226 220 219 221 220 220 220 222 222 225 230
352 318 307 306 308 299 298 302 303 299 294 295 303 304 303 300 297 292 281 274 263 256 250 241 240 243 243 240 238 232 230 230 225 220 217 218 222 225 224 226 227 228 231
308 299 306 311 305 297 295 296 299 302 301 299 301 302 301 301 301 299 294 281 267 265 265 254 250 244 243 243 246 246 247 244 238 230 221 219 223 224 224 225 226 229 231
327 312 306 309 307 301 295 293 297 299 295 295 298 296 294 292 292 291 293 291 281 275 274 265 260 256 256 254 255 257 257 253 247 243 233 223 223 228 226 225 221 222 224
Height
1467 1469 1470 1472 1473 1475 1476 1477 1479 1481 1483 1484 1486 1489 1490 1492 1494 1496 1498 1500 1502 1504 1506 1508 1509 1511 1512 1514 1516 1517 1518 1520 1520 1520 1522 1523 1523 1524 1525 1525 1526 1526 1526
1464 1465 1466 1467 1468 1470 1471 1472 1474 1476 1478 1480 1482 1484 1485 1487 1489 1490 1492 1494 1496 1498 1500 1502 1504 1506 1507 1509 1510 1512 1513 1514 1515 1515 1516 1517 1518 1519 1520 1520 1521 1521 1521
1460 1461 1462 1463 1463 1464 1466 1467 1469 1471 1473 1475 1477 1479 1480 1482 1484 1486 1487 1489 1491 1493 1495 1497 1498 1500 1501 1503 1505 1506 1507 1509 1510 1511 1511 1512 1513 1514 1514 1515 1516 1516 1516
1457 1457 1458 1458 1459 1460 1461 1463 1464 1466 1468 1470 1473 1474 1476 1478 1479 1480 1482 1484 1485 1487 1489 1491 1493 1495 1496 1498 1499 1500 1502 1503 1504 1505 1506 1507 1507 1508 1509 1509 1510 1510 1511
1453 1453 1454 1454 1455 1456 1457 1458 1460 1462 1463 1465 1468 1469 1471 1473 1474 1475 1477 1479 1480 1482 1484 1485 1488 1489 1491 1492 1494 1495 1496 1497 1498 1499 1500 1501 1502 1502 1503 1504 1504 1505 1505
1449 1449 1450 1451 1452 1452 1453 1454 1455 1457 1459 1461 1462 1464 1465 1467 1469 1471 1472 1474 1475 1476 1478 1479 1482 1483 1485 1487 1488 1489 1491 1492 1492 1493 1494 1495 1495 1497 1498 1499 1499 1499 1499
1445 1445 1446 1447 1447 1448 1449 1450 1451 1452 1454 1455 1457 1459 1460 1462 1464 1465 1467 1468 1469 1471 1472 1473 1475 1477 1479 1480 1482 1483 1484 1486 1487 1488 1488 1489 1490 1492 1493 1493 1494 1494 1494
1441 1441 1442 1442 1443 1444 1445 1446 1447 1448 1449 1450 1452 1454 1455 1456 1458 1460 1462 1463 1464 1465 1467 1468 1469 1471 1472 1474 1476 1477 1478 1479 1481 1482 1483 1484 1486 1487 1487 1488 1489 1489 1489
1437 1438 1438 1439 1440 1440 1441 1442 1443 1444 1444 1446 1447 1449 1450 1451 1453 1455 1457 1458 1459 1460 1461 1462 1464 1465 1467 1468 1470 1471 1472 1473 1475 1476 1478 1479 1480 1481 1482 1483 1483 1484 1483
1434 1434 1434 1435 1436 1436 1436 1437 1438 1439 1440 1441 1443 1444 1445 1446 1448 1450 1451 1452 1453 1455 1456 1457 1458 1460 1461 1462 1464 1465 1466 1467 1469 1470 1471 1473 1474 1475 1476 1477 1478 1479 1478
1431 1431 1431 1432 1432 1432 1433 1433 1434 1435 1436 1437 1438 1439 1441 1442 1443 1445 1446 1447 1448 1449 1450 1451 1452 1454 1455 1456 1458 1459 1460 1462 1463 1464 1465 1466 1468 1469 1470 1472 1473 1474 1474
1428 1428 1428 1428 1428 1428 1429 1429 1431 1431 1432 1433 1433 1434 1436 1437 1438 1439 1441 1442 1443 1444 1445 1446 1447 1449 1450 1451 1452 1454 1455 1456 1457 1458 1459 1460 1462 1463 1465 1466 1467 1468 1469
1424 1424 1425 1425 1425 1425 1425 1426 1427 1428 1428 1429 1429 1430 1431 1432 1433 1435 1436 1437 1438 1439 1440 1441 1442 1444 1445 1446 1447 1448 1450 1451 1452 1452 1453 1455 1456 1458 1459 1461 1462 1463 1463
1421 1421 1422 1422 1422 1422 1422 1423 1423 1424 1424 1425 1425 1426 1427 1428 1429 1430 1431 1432 1433 1434 1435 1436 1438 1439 1440 1441 1442 1443 1444 1445 1446 1447 1449 1450 1452 1453 1454 1455 1456 1456 1457
1418 1419 1419 1419 1419 1418 1419 1419 1420 1421 1422 1422 1422 1423 1423 1424 1425 1426 1427 1427 1428 1429 1430 1431 1432 1433 1434 1436 1437 1438 1439 1440 1441 1442 1444 1445 1446 1448 1449 1450 1451 1452 1452
1416 1416 1416 1416 1416 1416 1416 1416 1417 1418 1418 1419 1419 1420 1420 1421 1421 1422 1423 1423 1424 1425 1426 1426 1427 1428 1430 1430 1431 1432 1434 1434 1436 1437 1439 1440 1441 1442 1444 1445 1446 1446 1447
1414 1414 1413 1413 1413 1413 1413 1413 1413 1414 1415 1415 1416 1416 1416 1417 1418 1418 1419 1419 1420 1421 1422 1422 1423 1424 1425 1426 1427 1428 1429 1430 1431 1432 1434 1435 1436 1438 1439 1439 1440 1441 1442
1412 1412 1412 1412 1412 1412 1411 1411 1411 1411 1411 1411 1412 1413 1413 1413 1414 1414 1415 1415 1416 1417 1417 1418 1419 1420 1421 1422 1422 1423 1424 1425 1426 1427 1428 1430 1431 1432 1433 1434 1435 1436 1437
1411 1410 1410 1410 1410 1410 1410 1410 1409 1409 1409 1409 1409 1410 1410 1410 1410 1411 1411 1411 1411 1412 1414 1415 1415 1416 1416 1417 1418 1419 1420 1420 1421 1422 1423 1425 1426 1427 1428 1429 1430 1431 1431
1409 1409 1409 1409 1408 1408 1408 1408 1408 1408 1407 1407 1407 1407 1407 1407 1407 1407 1408 1408 1408 1409 1410 1411 1411 1412 1412 1413 1414 1415 1415 1416 1417 1418 1419 1420 1421 1423 1424 1424 1425 1426 1426
1408 1408 1407 1407 1407 1407 1406 1406 1406 1406 1405 1405 1405 1405 1406 1405 1404 1404 1405 1405 1405 1405 1406 1407 1407 1408 1409 1409 1410 1410 1411 1412 1413 1413 1414 1416 1417 1418 1419 1420 1420 1421 1421
1407 1407 1406 1406 1405 1405 1404 1404 1404 1404 1403 1403 1403 1403 1403 1403 1402 1402 1402 1402 1402 1402 1403 1404 1404 1405 1405 1406 1406 1407 1407 1408 1409 1409 1410 1411 1412 1413 1414 1415 1415 1415 1416
1406 1406 1405 1404 1404 1403 1403 1403 1402 1402 1401 1401 1400 1400 1400 1399 1399 1399 1399 1399 1399 1399 1400 1400 1400 1401 1402 1402 1403 1403 1403 1404 1405 1405 1406 1407 1408 1408 1409 1409 1410 1410 1410
1405 1405 1404 1403 1402 1401 1401 1400 1400 1399 1399 1398 1398 1397 1397 1397 1396 1396 1396 1396 1396 1396 1396 1397 1397 1397 1398 1399 1399 1399 1400 1400 1401 1401 1402 1402 1403 1404 1404 1404 1405 1405 1406
1404 1403 1402 1401 1401 1400 1399 1398 1397 1397 1396 1396 1395 1394 1394 1394 1393 1393 1392 1392 1392 1393 1393 1393 1393 1394 1394 1395 1395 1395 1396 1397 1397 1398 1398 1398 1398 1399 1399 1399 1400 1400 1401
1402 1401 1400 1400 1399 1398 1397 1396 1395 1394 1394 1393 1392 1391 1391 1390 1390 1389 1389 1389 1389 1389 1389 1390 1390 1390 1390 1391 1391 1391 1392 1392 1393 1393 1394 1394 1394 1394 1394 1395 1395 1395 1396